Weather in Mazunino

Russia / Perm Krai     57°18′47″N   56°30′45″E
temp.,
°C
wind,
m/s
gust,
m/s
humid.,
%
clouds,
%
prec.,
mm/h
press.,
hPa
HPBL,
m
2 march, tue
tue223:00−17ssw349770 0.0 101639
02:00−18ssw479842 0.0 1014131
05:00−17ssw6119467 0.0 1011327
08:00−17ssw71493100 0.0 1008414
11:00−15ssw81593100 0.2 1005483
14:00−13ssw81492100 0.4 1002591
17:00−11ssw71489100 0.6 1000651
20:00−10ssw61392100 0.1 998555
3 march, wed
wed323:00−8ssw51394100 0.6 997549
02:00−7s41096100 1.0 994484
05:00−6ssw1298100 2.3 99471
08:00−7wnw239599 0.1 99467
11:00−4w249494 0.1 995268
14:00−2w359096 0.0 996524
17:00−2w468998 0.1 997601
20:00−5wsw3493100 0.0 99770
4 march, thu
thu423:00−7wsw3495100 0.0 99861
02:00−6wnw3896100 0.1 997301
05:00−9wnw3893100 0.4 999224
08:00−14w479486 0.0 1000147
11:00−10wsw479192 0.0 1001343
14:00−6wsw5887100 0.0 1001800
17:00−6sw6989100 0.1 1001837
20:00−8ssw51292100 0.1 1000466
5 march, fri
fri523:00−7ssw61393100 0.3 997735
02:00−6ssw81693100 0.6 993830
05:00−2sw91694100 1.9 9891043
08:00−1wsw81588100 0.9 9891142
11:00−4wsw9157881 1.8 9921251
14:00−5w10158589 0.1 9961254
17:00−6w8138489 0.2 1000866
20:00−9w4119088 0.0 1004326
6 march, sat
sat623:00−11w379293 0.1 1007181
02:00−16w349559 0.0 100953
05:00−18w239641 0.0 101120
08:00−19sw229699 0.0 101120
11:00−14se119099 0.0 1010166
14:00−11ene3489100 0.0 1005384
17:00−10ne5795100 0.8 1001408
20:00−10n71195100 2.3 998430